Location: Stoke Bliss
(52.2667°N, 2.5167°W)
Time: 19:08:39
(UTC+00:00)

Resurs 01 Rocket - Pass Details

Date: 03 March 2021
Orbit: 635 x 643 km, 98.0° (Epoch: 17 April)

Event Time Altitude Azimuth Distance (km) Brightness Sun altitude
Exits shadow 19:12:41 18° 75° (ENE) 1,590 3.1 -12.9°
Maximum altitude 19:13:40 19° 58° (ENE) 1,534 3.1 -13.1°
Drops below altitude 10° 19:16:44 10° 14° (NNE) 2,037 4.1 -13.5°
Sets 19:19:28 0° 356° (N) 2,952 5.2 -13.9°
